TimeEDT,TemperatureF,Dew PointF,Humidity,Sea Level PressureIn,VisibilityMPH,Wind Direction,Wind SpeedMPH,Gust SpeedMPH,PrecipitationIn,Events,Conditions,WindDirDegrees,DateUTC
12:28 AM,55.4,53.6,94,29.63,1.5,Calm,Calm,-,N/A,,Overcast,0,2012-10-16 04:28:00
12:41 AM,55.4,53.6,94,29.63,3.0,Calm,Calm,-,N/A,,Overcast,0,2012-10-16 04:41:00
12:54 AM,55.9,53.1,90,29.63,8.0,Calm,Calm,-,N/A,,Overcast,0,2012-10-16 04:54:00
1:50 AM,53.6,51.8,94,29.63,3.0,WSW,3.5,-,N/A,,Mostly Cloudy,240,2012-10-16 05:50:00
1:54 AM,54.0,48.9,83,29.63,5.0,West,3.5,-,N/A,,Haze,280,2012-10-16 05:54:00
2:54 AM,54.0,42.1,64,29.63,10.0,WSW,5.8,-,N/A,,Mostly Cloudy,240,2012-10-16 06:54:00
3:54 AM,53.1,41.0,64,29.62,10.0,West,9.2,17.3,N/A,,Overcast,270,2012-10-16 07:54:00
4:54 AM,51.1,37.9,61,29.62,10.0,West,11.5,-,N/A,,Mostly Cloudy,270,2012-10-16 08:54:00
5:54 AM,48.9,36.0,61,29.64,10.0,West,8.1,-,N/A,,Overcast,260,2012-10-16 09:54:00
6:54 AM,48.0,33.1,56,29.66,10.0,NW,8.1,17.3,N/A,,Scattered Clouds,310,2012-10-16 10:54:00
8:54 AM,46.0,32.0,58,29.70,10.0,WNW,4.6,-,N/A,,Mostly Cloudy,300,2012-10-16 12:54:00
9:54 AM,45.0,30.9,58,29.72,10.0,WNW,11.5,23.0,N/A,,Overcast,290,2012-10-16 13:54:00
10:54 AM,46.0,30.9,56,29.74,10.0,West,15.0,21.9,N/A,,Overcast,270,2012-10-16 14:54:00
11:13 AM,46.4,30.2,53,29.73,10.0,Variable,5.8,17.3,N/A,,Overcast,0,2012-10-16 15:13:00
11:54 AM,46.9,30.0,52,29.74,10.0,WNW,11.5,19.6,N/A,,Mostly Cloudy,290,2012-10-16 15:54:00
12:54 PM,48.9,30.0,48,29.74,10.0,West,5.8,-,N/A,,Overcast,270,2012-10-16 16:54:00
1:54 PM,48.9,30.0,48,29.73,10.0,NNW,16.1,28.8,N/A,,Mostly Cloudy,340,2012-10-16 17:54:00
2:54 PM,51.1,30.9,46,29.74,10.0,NW,12.7,21.9,N/A,,Mostly Cloudy,320,2012-10-16 18:54:00
3:54 PM,53.1,30.9,43,29.74,10.0,Variable,6.9,19.6,N/A,,Scattered Clouds,0,2012-10-16 19:54:00
4:54 PM,53.1,32.0,45,29.76,10.0,WNW,9.2,17.3,N/A,,Mostly Cloudy,290,2012-10-16 20:54:00
5:54 PM,50.0,30.9,48,29.78,10.0,West,13.8,20.7,N/A,,Overcast,280,2012-10-16 21:54:00
6:54 PM,48.0,30.0,50,29.82,10.0,WNW,8.1,17.3,N/A,,Partly Cloudy,300,2012-10-16 22:54:00
7:54 PM,46.0,30.0,54,29.83,10.0,Calm,Calm,-,N/A,,Clear,0,2012-10-16 23:54:00
8:54 PM,42.1,30.9,65,29.87,10.0,Calm,Calm,-,N/A,,Clear,0,2012-10-17 00:54:00
9:54 PM,44.1,30.0,58,29.88,10.0,NW,4.6,-,N/A,,Clear,310,2012-10-17 01:54:00
10:54 PM,36.0,30.9,82,29.91,10.0,Calm,Calm,-,N/A,,Clear,0,2012-10-17 02:54:00
11:54 PM,35.1,30.9,85,29.92,10.0,Calm,Calm,-,N/A,,Clear,0,2012-10-17 03:54:00